Dewpoint
37 39 36 38 40 38 35 36 34 34 34 35 35 34 34 33 33 33 32 29 33 36 39 41 42 43 45 49 52 54 54 56 56 57 56 53 50 47 45 44 42 41 40 40
35 36 37 35 39 42 42 35 33 33 34 34 33 33 33 34 35 35 31 30 33 37 37 40 41 41 41 44 49 53 55 57 56 53 52 49 47 45 44 43 41 38 36 36
33 35 38 33 38 41 39 36 31 31 34 34 34 34 35 36 36 33 31 31 34 36 36 38 40 41 42 43 46 47 48 48 49 49 48 47 47 46 42 40 39 37 34 30
33 34 36 34 37 41 40 37 33 33 35 32 35 27 29 30 29 30 29 31 35 36 36 38 40 42 44 46 47 46 46 46 46 46 45 44 41 38 38 37 36 34 33 28
35 35 36 36 39 43 41 37 35 37 36 37 36 33 29 30 28 29 30 33 36 37 38 39 41 43 45 47 46 44 43 42 42 42 41 39 37 36 35 34 31 29 27 26
33 33 37 37 42 43 44 37 38 37 35 31 31 31 26 28 27 27 30 34 36 37 38 40 42 44 45 46 45 44 40 39 39 39 37 37 36 34 32 30 26 24 22 23
34 35 39 42 44 46 45 39 35 33 34 26 29 29 28 25 26 27 31 34 36 38 39 40 41 42 44 44 43 40 38 36 35 35 34 33 33 30 27 24 22 19 18 18
31 31 37 40 43 40 41 38 28 24 25 25 27 26 26 27 28 29 32 35 37 38 39 40 41 43 43 43 40 38 36 34 32 31 29 27 27 25 22 20 18 16 15 14
33 33 39 43 45 41 39 36 33 29 27 25 27 28 27 27 29 28 31 35 37 38 39 40 41 42 42 41 39 38 35 32 30 28 25 23 21 20 19 17 16 16 13 9
36 34 39 43 44 43 40 39 32 30 25 23 24 24 25 26 27 28 29 35 37 38 39 40 41 41 40 39 38 37 33 30 27 25 22 20 17 15 15 15 13 12 11 11
39 35 35 41 41 39 41 39 36 31 28 24 22 23 27 25 26 28 30 34 37 38 39 39 40 40 39 38 37 34 31 28 25 23 20 18 15 14 12 11 10 9 9 9
41 39 35 34 35 39 39 39 35 30 27 27 25 23 25 27 29 29 30 34 37 39 39 39 40 40 38 37 35 33 31 27 25 21 17 16 15 14 12 10 9 8 8 8
38 33 35 35 34 37 38 36 36 34 32 28 24 24 26 30 31 30 31 33 37 39 39 38 39 38 37 36 33 31 29 25 21 18 16 15 15 13 11 10 9 9 9 9
40 32 30 27 29 36 37 38 35 33 30 28 27 26 25 29 31 32 32 34 37 38 39 38 39 38 36 35 32 29 27 24 19 16 15 15 14 12 11 11 11 10 10 11
37 31 29 27 29 32 33 34 35 34 33 29 28 27 27 28 30 32 33 34 36 37 38 38 39 38 36 34 31 27 26 21 16 14 14 14 13 12 12 12 12 11 12 13
37 32 30 29 30 29 29 30 32 33 33 32 30 30 30 29 29 31 32 33 34 36 37 38 39 39 36 33 30 27 24 18 15 13 12 12 10 11 12 12 11 12 13 13
36 35 30 26 27 30 28 29 29 30 31 30 28 31 32 29 30 31 32 33 33 34 36 38 39 39 37 33 30 26 21 15 13 11 9 9 10 10 11 11 10 12 12 13
35 35 31 28 27 27 27 29 30 29 30 31 31 32 30 30 30 32 33 34 34 36 36 38 39 40 36 32 29 24 17 14 11 9 7 8 9 9 9 9 10 11 11 12
36 37 34 29 29 31 28 26 28 29 29 30 29 30 30 33 35 34 35 35 36 36 38 39 40 37 33 29 25 19 15 11 9 7 7 7 7 8 8 9 10 11 12 13
39 38 37 35 29 25 26 29 28 31 27 30 32 31 32 34 31 33 36 37 37 38 39 39 37 32 29 26 21 19 14 9 5 6 7 8 9 9 8 9 11 12 12 11
34 38 36 35 32 32 28 30 30 24 29 31 31 32 34 33 35 36 35 35 36 37 35 33 31 29 25 20 19 16 10 5 7 8 8 8 9 8 8 11 13 14 12 11
34 34 35 35 34 31 32 32 28 35 35 33 34 34 35 36 35 35 35 35 34 33 32 30 28 24 20 18 16 11 7 7 8 9 9 9 8 8 11 18 19 16 12 10
32 33 30 31 33 35 34 35 36 36 36 36 36 36 36 35 35 36 35 34 33 31 30 28 26 21 19 15 13 8 8 8 8 9 8 8 8 10 12 16 16 14 10 9
29 31 29 28 32 33 34 35 36 36 36 36 35 35 35 35 36 36 35 34 33 31 29 28 24 21 18 13 10 8 9 9 9 8 7 8 10 12 12 12 12 12 9 11
31 31 32 31 34 34 34 35 35 35 35 35 35 35 35 35 35 35 35 36 35 33 30 28 26 24 19 14 9 9 10 9 9 7 7 9 10 11 12 11 10 9 11 15
33 31 30 28 33 33 34 35 35 35 35 35 35 35 36 36 35 35 35 36 35 33 30 28 26 23 16 10 8 9 10 10 9 8 10 11 12 13 11 10 11 17 20 21
Lifted_Index
1 0 0 1 1 0 -0 -0 -0 0 1 1 2 3 3 3 3 4 4 5 5 5 5 6 6 6 6 4 3 2 2 1 1 1 2 3 3 4 4 6 7 9 10 11
-0 -0 0 0 0 -0 -0 -1 -0 0 1 2 2 3 3 3 3 4 4 5 5 5 5 6 6 7 6 6 5 4 3 3 3 3 4 5 5 5 6 8 9 10 11 11
-1 -1 -0 -0 0 -0 -1 -1 -0 0 1 1 2 2 2 2 3 3 4 5 5 5 6 6 7 7 8 7 7 6 6 6 5 6 6 7 7 8 9 10 11 11 11 12
0 -0 -1 -0 -0 -0 -1 -0 -0 0 1 1 2 2 2 2 3 3 4 5 6 6 6 7 7 8 8 8 8 8 8 8 8 7 8 8 8 9 10 11 11 11 11 11
1 0 0 0 0 -0 -0 -0 -0 0 0 1 1 2 2 2 3 3 4 5 6 6 7 7 8 8 8 9 9 9 9 8 8 8 8 8 9 9 10 11 11 11 11 12
2 1 1 1 1 0 0 -0 0 0 1 1 1 1 2 2 3 4 4 5 6 7 7 8 8 8 9 9 9 9 8 8 8 8 9 9 9 9 10 10 10 11 11 11
1 1 1 1 0 1 1 0 0 0 1 1 1 1 2 2 3 4 5 6 6 7 8 8 8 9 9 9 9 8 8 8 8 8 9 9 9 9 10 10 10 10 11 11
1 1 1 0 0 0 0 0 0 0 0 1 2 2 2 3 4 4 5 6 6 7 8 8 8 9 9 8 8 8 8 8 8 8 9 9 10 10 10 10 10 11 12 12
2 1 0 0 0 1 0 0 0 0 0 1 1 2 2 3 4 4 5 5 6 7 7 8 8 8 8 8 8 8 8 8 8 8 9 10 10 10 10 11 11 12 13 14
2 1 1 0 1 1 1 0 0 1 0 0 1 1 2 3 4 4 4 5 6 6 7 8 8 8 8 8 8 8 7 8 8 9 10 10 11 11 11 11 12 13 15 17
2 1 1 0 1 1 1 1 1 1 1 0 0 1 2 3 4 4 4 4 5 6 7 7 8 8 7 7 7 7 7 7 8 9 10 11 11 11 12 12 14 15 17 19
2 1 0 0 1 1 1 1 1 1 1 1 1 2 2 3 4 4 4 4 5 6 6 7 7 7 7 6 6 7 7 8 9 10 11 11 11 12 12 14 15 18 19 21
2 1 1 0 1 1 1 1 1 1 1 1 1 2 2 3 3 4 4 4 5 6 6 6 7 6 6 6 6 6 7 8 9 10 11 11 11 12 13 15 17 19 21 21
2 2 1 1 1 1 1 1 1 1 1 1 1 1 2 2 3 3 4 4 5 5 6 6 6 5 5 5 6 6 7 8 9 10 11 11 12 13 14 16 19 21 21 21
2 2 2 1 1 1 1 1 1 1 1 1 1 1 2 2 2 3 4 4 5 5 5 5 5 5 5 5 6 6 7 8 10 10 11 11 12 14 16 18 20 21 21 21
2 2 2 2 2 2 1 1 1 1 2 2 2 2 1 2 3 3 4 4 4 4 4 4 5 5 5 5 6 7 8 9 10 11 11 12 13 15 17 19 21 21 21 20
2 2 2 2 2 2 2 2 2 2 2 3 2 2 2 2 3 3 4 4 4 4 4 4 5 5 5 6 6 7 8 9 10 11 11 12 13 15 18 20 21 20 20 19
2 2 1 2 1 1 2 2 2 2 3 3 3 3 3 3 3 4 4 4 4 4 4 5 5 5 6 6 7 7 8 10 10 11 12 13 14 17 19 20 20 20 19 19
2 1 1 1 1 1 1 2 2 2 2 3 3 3 3 3 3 4 4 5 5 5 5 5 6 6 6 6 7 8 9 10 11 11 12 13 16 18 19 20 19 19 19 19
2 2 1 1 1 1 1 2 2 2 2 2 3 3 3 3 3 4 5 5 5 5 6 7 7 7 7 7 8 8 9 10 11 12 13 15 17 19 20 19 19 19 19 19
2 2 1 1 1 1 1 2 2 2 2 2 3 3 3 3 3 4 5 5 6 6 7 8 8 8 8 8 9 9 10 11 12 13 14 17 19 20 20 19 19 19 19 19
1 1 1 1 1 1 1 2 2 2 2 3 3 3 3 4 4 4 5 5 6 7 9 10 10 10 9 10 10 10 10 11 13 14 16 18 20 20 19 18 18 19 19 19
1 1 1 1 1 1 1 2 2 3 3 3 3 4 4 4 4 5 5 6 8 9 10 11 11 10 10 10 10 11 11 13 14 16 18 19 19 19 18 18 18 19 19 19
1 1 1 1 1 1 2 2 3 3 3 4 4 4 5 5 5 5 6 8 10 11 11 11 11 11 11 11 11 12 13 15 17 18 19 19 19 18 18 18 19 19 19 19
1 1 1 1 1 1 2 3 3 4 4 4 5 5 5 5 6 7 8 10 11 11 12 12 11 11 11 12 12 14 16 17 19 19 19 18 18 18 18 19 19 20 19 19
1 1 1 1 1 2 3 3 4 4 4 5 5 5 5 6 7 9 10 11 12 12 12 12 11 11 11 12 13 15 17 19 19 19 18 17 17 18 18 19 19 20 19 18